Location: Corcelles
(46.1547°N, 4.7234°E)
Time: 05:59:02
(UTC+00:00)

Cosmos 1241 Rocket - Visible Passes

Search period start: 20 October 2020 00:00
Search period end: 30 October 2020 00:00
Orbit: 931 x 1017 km, 65.8° (Epoch: 19 October)

Date Brightness Start Highest point End Pass type
(mag) Time Alt. Az. Time Alt. Az. Time Alt. Az.
20 Oct 6.3 02:32:38 22° SE 02:32:38 22° SE 02:34:50 10° SE visible
20 Oct 5.7 04:17:23 22° SW 04:17:23 22° SW 04:20:39 10° SSW visible
20 Oct 4.6 17:40:53 10° SSW 17:46:59 55° ESE 17:53:16 10° NE visible
20 Oct 5.8 19:29:05 10° WSW 19:34:55 37° NW 19:40:03 14° NNE visible
20 Oct 6.9 21:20:57 10° NW 21:24:37 15° NNW 21:24:40 15° NNW visible
21 Oct 6.6 02:59:04 14° SSE 02:59:04 14° SSE 02:59:58 10° SSE visible
21 Oct 4.5 18:05:43 10° SW 18:12:02 86° NW 18:18:33 10° NE visible
21 Oct 6.4 19:55:27 10° W 20:00:38 25° NNW 20:04:40 15° NNE visible
21 Oct 7.2 21:47:50 10° NNW 21:49:17 12° NNW 21:49:17 12° NNW visible
22 Oct 5.2 18:31:09 10° SW 18:37:19 52° NW 18:43:40 10° NNE visible
22 Oct 6.7 20:22:14 10° WNW 20:26:33 18° NNW 20:29:12 15° N visible
23 Oct 4.6 17:08:33 10° SSW 17:14:46 63° ESE 17:21:08 10° NE visible
23 Oct 6.0 18:57:09 10° WSW 19:02:51 33° NW 19:08:42 10° NNE visible
23 Oct 6.9 20:49:11 10° NW 20:52:40 15° NNW 20:53:41 14° N visible
24 Oct 4.7 17:33:32 10° SW 17:39:51 77° NW 17:46:23 10° NNE visible
24 Oct 6.5 19:23:37 10° W 19:28:36 23° NNW 19:33:32 11° NNE visible
24 Oct 7.0 21:15:58 10° NNW 21:18:08 13° N 21:18:08 13° N visible
25 Oct 5.4 17:59:07 10° WSW 18:05:12 47° NW 18:11:28 10° NNE visible
25 Oct 6.8 19:50:27 10° WNW 19:54:35 17° NNW 19:57:57 12° NNE visible
25 Oct 7.2 21:42:06 10° NNW 21:42:33 11° NNW 21:42:33 11° NNW visible
26 Oct 6.1 18:25:13 10° W 18:30:47 31° NW 18:36:29 10° NNE visible
26 Oct 6.8 20:17:25 10° NW 20:20:44 14° N 20:22:20 13° N visible
27 Oct 4.9 17:01:24 10° SW 17:07:42 68° NW 17:14:11 10° NNE visible
27 Oct 6.5 18:51:47 10° WNW 18:56:36 22° NNW 19:01:30 10° NNE visible
27 Oct 6.9 20:44:05 10° NNW 20:46:43 13° N 20:46:43 13° N visible
28 Oct 5.6 17:27:06 10° WSW 17:33:06 42° NW 17:39:16 10° NNE visible
28 Oct 6.8 19:18:40 10° WNW 19:22:38 16° NNW 19:26:29 10° NNE visible
28 Oct 7.1 21:10:02 10° NNW 21:11:04 12° NNW 21:11:04 12° NNW visible
29 Oct 6.2 17:53:19 10° W 17:58:44 28° NW 18:04:16 10° NNE visible
29 Oct 6.8 19:45:37 10° NW 19:48:48 14° N 19:50:50 12° N visible
29 Oct 7.3 21:35:24 10° NNW 21:35:26 10° NNW 21:35:26 10° NNW visible
